[[{"header":{"parameterUnit":"m.s-1","parameterCategory":1,"la1":30.2991,"la2":30.254,"lo1":-89.0895,"lo2":-89.0444,"dy":0.0017,"dx":0.0017,"nx":28,"ny":28,"refTime":"2025-03-23T21:00:00:Z","depth":0,"parameterNumber":2,"parameterNumberName":"U-component_of_WINDS"},"data":[0,0,0,0,0,0,0,0,0,0,0,0,0,0,0,0,0,0,0,0,0,0,0,0,0,0,0,0,0,0,0,0,0,0,0,0,0,0,0,0,0,0,0,0,0,0,0,0,0,0,0,0,0,0,0,0,0,0,0.6415,0.6415,0,0.644,0.6441,0.6441,0.6437,0.6437,0.6436,0.6436,0.6464,0.6465,0.6466,0,0,0,0,0,0,0,0,0,0,0,0,0,0.6363,0.6364,0.6415,0.6415,0.6415,0.644,0.6441,0.6441,0.6437,0.6437,0.6436,0.6436,0.6464,0.6465,0.6466,0,0,0,0,0,0,0,0,0,0,0,0,0,0.6387,0.6365,0.6415,0.6417,0.6417,0.644,0.6441,0.6441,0.6438,0.6437,0.6436,0.6436,0.6463,0.6465,0.6466,0.649,0,0,0.6472,0.6472,0,0,0,0,0,0,0,0,0.6386,0.6389,0.6416,0.6416,0.6417,0.6435,0.6433,0.6458,0.6438,0.643,0.6436,0.6435,0.6455,0.6457,0.6464,0.6491,0.6492,0.6472,0.6473,0.6474,0.6474,0,0,0,0,0,0,0,0.6384,0.6388,0.6425,0.6416,0.6417,0.6416,0.6419,0.6437,0.6446,0.643,0.643,0.6433,0.6455,0.6462,0.6464,0.6493,0.6472,0.6473,0.6474,0.6475,0.6541,0.6542,0,0,0,0,0,0,0.6382,0.6386,0.6424,0.6426,0.6399,0.6418,0.6421,0.643,0.6445,0.6447,0.6434,0.6433,0.6459,0.6462,0.6465,0.6494,0.6474,0.6475,0.6476,0.654,0.6541,0.6542,0,0,0,0,0,0,0.6381,0.6385,0.6423,0.6406,0.6411,0.6419,0.643,0.6431,0.6438,0.6448,0.645,0.6439,0.6459,0.6463,0.6484,0.6495,0.6476,0.6478,0.6539,0.654,0.6541,0.6551,0,0,0,0,0,0,0.6379,0.6385,0.6394,0.6406,0.6412,0.6441,0.643,0.6432,0.644,0.644,0.6453,0.6455,0.6459,0.6481,0.6485,0.6497,0.6479,0.6538,0.654,0.6541,0.655,0.6552,0.6554,0,0,0,0,0,0.6377,0.6396,0.6394,0.6399,0.6423,0.6442,0.6445,0.6448,0.6441,0.645,0.6457,0.6455,0.6492,0.6483,0.6488,0.65,0.6538,0.6539,0.6541,0.6549,0.6552,0.6554,0,0,0,0,0,0,0.6385,0.6397,0.6396,0.6419,0.6429,0.6441,0.6453,0.6451,0.6464,0.6463,0.6467,0.647,0.6491,0.6497,0.6487,0.6523,0.6514,0.6517,0.6518,0.6521,0.6524,0.6522,0.648,0,0,0,0,0,0.6389,0.6403,0.6413,0.6432,0.6437,0.6444,0.6452,0.6454,0.6465,0.6469,0.6478,0.6489,0.6503,0.6512,0.6526,0.655,0.6553,0.6561,0.6563,0.6565,0.6567,0.658,0.6584,0.6547,0.6547,0.6547,0,0,0.6398,0.6407,0.6415,0.6434,0.6442,0.6457,0.6448,0.6464,0.6474,0.6472,0.6492,0.6498,0.6511,0.6533,0.6544,0.654,0.6578,0.6567,0.6568,0.657,0.6582,0.6586,0.6589,0.6548,0.6548,0.6548,0,0,0.6422,0.643,0.6447,0.6455,0.6467,0.6471,0.6475,0.6487,0.6491,0.6511,0.6509,0.6522,0.6547,0.6556,0.6564,0.659,0.6589,0.6594,0.6607,0.6619,0.6622,0.6625,0.6634,0.6638,0.6597,0.6597,0.6597,0,0.6432,0.6453,0.6456,0.6471,0.648,0.6477,0.6494,0.6502,0.6518,0.6524,0.6519,0.6549,0.6558,0.6582,0.6589,0.6595,0.66,0.6593,0.6622,0.6624,0.6627,0.6636,0.6639,0.6597,0.6597,0.6597,0.6597,0,0.6465,0.648,0.6492,0.6507,0.6516,0.6533,0.6538,0.6547,0.6547,0.6552,0.6572,0.6582,0.6598,0.6603,0.6604,0.6628,0.6625,0.6621,0.6612,0.6631,0.6639,0.6643,0.6598,0.6598,0.6598,0.6598,0,0,0.6495,0.6511,0.6515,0.6522,0.6535,0.6546,0.6562,0.6577,0.6585,0.6596,0.661,0.663,0.6626,0.6635,0.6637,0.6647,0.6668,0.6642,0.6642,0.6646,0.6694,0.6698,0.6702,0.6666,0.6667,0.6668,0.6693,0,0.652,0.6549,0.6551,0.6576,0.659,0.6587,0.6601,0.6611,0.6615,0.6628,0.6633,0.6647,0.6641,0.6646,0.6657,0.6663,0.6677,0.6661,0.668,0.668,0.6677,0.6706,0.671,0.6734,0.6697,0.6697,0.6698,0,0.6554,0.6565,0.6592,0.6603,0.6608,0.6621,0.6634,0.6646,0.6657,0.6659,0.6669,0.6669,0.6685,0.6675,0.6698,0.6687,0.6694,0.6699,0.67,0.6702,0.669,0.671,0.6742,0.6745,0.6703,0.6703,0.6702,0,0.6573,0.6596,0.6614,0.662,0.6633,0.6642,0.6647,0.6657,0.6666,0.6677,0.6683,0.6697,0.6704,0.6715,0.6718,0.6711,0.6741,0.6731,0.6744,0.6744,0.6751,0.6751,0.6785,0.6755,0.6755,0.6755,0.6755,0,0.6602,0.6618,0.6623,0.6635,0.6653,0.6655,0.6673,0.6679,0.6687,0.67,0.6699,0.6711,0.6714,0.6727,0.673,0.6749,0.6752,0.6755,0.6755,0.6755,0.6755,0.676,0.6759,0.6756,0.6756,0.6756,0.6756,0,0.6627,0.6631,0.6651,0.6661,0.6664,0.6677,0.6686,0.6697,0.6701,0.6717,0.6721,0.6727,0.6742,0.6747,0.6765,0.6767,0.6788,0.6787,0.6785,0.6785,0.6797,0.6796,0.6837,0.6842,0.6809,0.6809,0.6809,0,0.6645,0.6657,0.6669,0.6677,0.6683,0.6696,0.6704,0.6707,0.6716,0.6728,0.6738,0.6752,0.6764,0.6788,0.6794,0.6808,0.6807,0.6821,0.6809,0.6809,0.6808,0.6807,0.6808,0.6823,0.6823,0.6824,0.6824,0,0.6676,0.6677,0.6689,0.6702,0.6712,0.6722,0.6732,0.6739,0.6743,0.6753,0.6767,0.6776,0.6794,0.6809,0.6822,0.6828,0.6827,0.6827,0.6831,0.6831,0.6829,0.683,0.6791,0.6826,0.6826,0.6826,0.6826,0.6826,0.6698,0.6709,0.6719,0.6732,0.674,0.6749,0.676,0.6765,0.6777,0.6791,0.6792,0.6808,0.6818,0.6836,0.6843,0.6855,0.6851,0.6857,0.6858,0.6859,0.686,0.6826,0.6858,0.6858,0.6858,0.6858,0.6857,0,0.673,0.6736,0.6748,0.6761,0.6772,0.6769,0.6779,0.6788,0.6802,0.6811,0.6823,0.6839,0.6853,0.686,0.6874,0.6883,0.6882,0.6886,0.6886,0.6887,0.6863,0.6859,0.6886,0.6886,0.6886,0.6886,0.6886,0.6886,0.6747,0.6766,0.6768,0.679,0.6795,0.6811,0.6817,0.6825,0.6833,0.6851,0.6862,0.6867,0.6875,0.6889,0.6902,0.6903,0.6909,0.6913,0.6914,0.6892,0.6889,0.6886,0.6882,0.6914,0.6914,0.6937,0.6938,0.6938]},{"header":{"parameterUnit":"m.s-1","parameterCategory":1,"la1":30.2991,"la2":30.254,"lo1":-89.0895,"lo2":-89.0444,"dy":0.0017,"dx":0.0017,"nx":28,"ny":28,"refTime":"2025-03-23T21:00:00:Z","depth":0,"parameterNumber":3,"parameterNumberName":"V-component_of_WINDS"},"data":[0,0,0,0,0,0,0,0,0,0,0,0,0,0,0,0,0,0,0,0,0,0,0,0,0,0,0,0,0,0,0,0,0,0,0,0,0,0,0,0,0,0,0,0,0,0,0,0,0,0,0,0,0,0,0,0,0,0,1.5058,1.506,0,1.5185,1.5186,1.5188,1.5205,1.5204,1.5203,1.5202,1.5334,1.5338,1.5343,0,0,0,0,0,0,0,0,0,0,0,0,0,1.4832,1.4836,1.5058,1.506,1.5061,1.5185,1.5186,1.5188,1.5205,1.5204,1.5202,1.5201,1.5332,1.5337,1.5343,0,0,0,0,0,0,0,0,0,0,0,0,0,1.4942,1.4837,1.5058,1.5085,1.5088,1.5184,1.5187,1.5189,1.5206,1.5204,1.5202,1.52,1.533,1.5337,1.5344,1.5423,0,0,1.5365,1.5368,0,0,0,0,0,0,0,0,1.4935,1.495,1.5079,1.5083,1.5087,1.5177,1.5155,1.5267,1.5206,1.5161,1.5202,1.5199,1.5283,1.5294,1.5322,1.5429,1.5434,1.5366,1.537,1.5373,1.5375,0,0,0,0,0,0,0,1.4928,1.4945,1.5108,1.5081,1.5086,1.5091,1.5104,1.5176,1.5231,1.5165,1.5166,1.5181,1.5285,1.5315,1.5325,1.5436,1.5365,1.5372,1.5376,1.5379,1.5614,1.5616,0,0,0,0,0,0,1.4915,1.4938,1.5104,1.5112,1.5005,1.5096,1.5111,1.515,1.523,1.524,1.5183,1.5181,1.5304,1.5317,1.533,1.5427,1.5373,1.5379,1.5383,1.5612,1.5615,1.5617,0,0,0,0,0,0,1.491,1.493,1.5099,1.5026,1.5048,1.5102,1.5145,1.5154,1.5184,1.5243,1.5253,1.5203,1.5303,1.532,1.5399,1.5432,1.5382,1.5389,1.561,1.5613,1.5616,1.5623,0,0,0,0,0,0,1.4903,1.4928,1.4958,1.5026,1.5051,1.5166,1.5148,1.5157,1.5195,1.5195,1.5265,1.5275,1.5303,1.5389,1.5406,1.5441,1.5394,1.5607,1.5611,1.5615,1.562,1.5626,1.5631,0,0,0,0,0,1.4895,1.4956,1.496,1.498,1.509,1.5168,1.5183,1.5213,1.5198,1.5229,1.5267,1.5273,1.5425,1.5397,1.5416,1.5454,1.5605,1.561,1.5615,1.5618,1.5625,1.5631,0,0,0,0,0,0,1.4891,1.4965,1.497,1.5054,1.5105,1.5171,1.5211,1.522,1.5276,1.5274,1.5309,1.5325,1.5403,1.5436,1.5403,1.5534,1.5514,1.5523,1.551,1.5517,1.5523,1.5514,1.54,0,0,0,0,0,1.49,1.4956,1.5018,1.5086,1.5111,1.5157,1.5192,1.521,1.5265,1.5286,1.533,1.5383,1.5443,1.5482,1.554,1.5625,1.5641,1.566,1.5666,1.567,1.5678,1.5725,1.5735,1.5633,1.5633,1.5633,0,0,1.4919,1.4966,1.5,1.5086,1.5128,1.5186,1.5175,1.5237,1.5281,1.5296,1.5374,1.5407,1.5469,1.5551,1.559,1.5581,1.5709,1.5676,1.5679,1.5684,1.5731,1.574,1.5749,1.5636,1.5635,1.5635,0,0,1.4983,1.5024,1.5086,1.5127,1.5189,1.5219,1.5233,1.5298,1.5321,1.5399,1.5412,1.5464,1.5567,1.561,1.5645,1.5724,1.5732,1.5742,1.5771,1.5817,1.5825,1.5833,1.5862,1.5872,1.5749,1.5749,1.5749,0,1.4999,1.5087,1.5116,1.5178,1.5216,1.5231,1.5294,1.5332,1.5411,1.5437,1.5426,1.5554,1.5596,1.5689,1.5708,1.5736,1.5754,1.5735,1.5822,1.5829,1.5837,1.5865,1.5875,1.575,1.575,1.575,1.575,0,1.5104,1.5164,1.5206,1.5281,1.5323,1.5385,1.5424,1.5463,1.5478,1.5509,1.5588,1.5639,1.5708,1.5731,1.5746,1.5826,1.5819,1.5814,1.5795,1.5847,1.5874,1.5885,1.5752,1.5751,1.5751,1.5751,0,0,1.5171,1.5259,1.5274,1.5308,1.5377,1.5425,1.5487,1.5554,1.5587,1.564,1.5694,1.5779,1.5775,1.5815,1.5835,1.5875,1.5935,1.5866,1.5868,1.5878,1.6027,1.6031,1.6043,1.594,1.5942,1.5944,1.6022,0,1.5244,1.5355,1.5382,1.5478,1.5534,1.5548,1.5603,1.5651,1.5681,1.5734,1.5767,1.5828,1.5818,1.5842,1.5882,1.5919,1.5966,1.5914,1.5991,1.5994,1.5977,1.6057,1.6061,1.6133,1.6033,1.6035,1.6036,0,1.5344,1.5399,1.5499,1.556,1.5585,1.5633,1.5696,1.5746,1.5801,1.582,1.5864,1.588,1.5946,1.5922,1.6013,1.5977,1.601,1.6033,1.6037,1.6046,1.6019,1.6069,1.6156,1.6167,1.6053,1.6051,1.605,0,1.5384,1.5482,1.5555,1.5583,1.5657,1.569,1.5722,1.5776,1.5814,1.5869,1.5894,1.5956,1.599,1.6038,1.607,1.6049,1.6159,1.6138,1.6177,1.6177,1.6201,1.62,1.6296,1.622,1.622,1.622,1.622,0,1.5464,1.5525,1.5574,1.5619,1.5688,1.5718,1.5786,1.5818,1.5865,1.5917,1.5933,1.5982,1.6021,1.6074,1.61,1.6172,1.6187,1.6205,1.6211,1.6204,1.6202,1.6228,1.6224,1.6223,1.6222,1.6222,1.6221,0,1.552,1.5556,1.5636,1.5698,1.5715,1.5763,1.5817,1.5861,1.5891,1.5956,1.5973,1.602,1.6084,1.6121,1.6202,1.6219,1.6299,1.6303,1.6281,1.6284,1.6322,1.6318,1.6439,1.6456,1.6368,1.6369,1.6369,0,1.5569,1.5617,1.5683,1.5719,1.5751,1.5808,1.5847,1.5879,1.5918,1.5984,1.602,1.6085,1.6139,1.624,1.6282,1.6344,1.635,1.6388,1.6359,1.6351,1.6352,1.6349,1.6354,1.6393,1.6394,1.6395,1.6395,0,1.5653,1.5668,1.5722,1.5783,1.5828,1.5878,1.5927,1.5955,1.5995,1.6039,1.6104,1.6146,1.6227,1.6292,1.6357,1.639,1.64,1.6403,1.6416,1.641,1.6396,1.6405,1.6295,1.6401,1.64,1.64,1.64,1.6399,1.5708,1.5751,1.5804,1.5865,1.5905,1.595,1.5994,1.6029,1.6084,1.6153,1.6168,1.6237,1.629,1.6379,1.6414,1.6468,1.6462,1.648,1.6485,1.6489,1.6491,1.6386,1.648,1.648,1.648,1.648,1.648,0,1.5794,1.5828,1.5883,1.5951,1.5998,1.6001,1.6056,1.6095,1.6155,1.6204,1.6256,1.6331,1.6393,1.6439,1.6503,1.6538,1.6544,1.6554,1.6552,1.656,1.6493,1.6476,1.6548,1.6548,1.6548,1.6548,1.6548,1.6548,1.5844,1.5916,1.5937,1.6029,1.6063,1.613,1.6161,1.6203,1.6242,1.6325,1.6376,1.6405,1.6453,1.652,1.6578,1.659,1.6613,1.6622,1.6635,1.6572,1.6564,1.6558,1.6542,1.6627,1.6627,1.6698,1.6698,1.6699]}]]